[ hide orbit diagram ]
For accurate long-term ephemerides, please instead use our Horizons system.This orbit viewer was implemented using two-body methods, and hence should not be used for determining accurate long-term trajectories (over several years or decades) or planetary encounter circumstances.
Orbital Elements at Epoch 2459200.5 (2020-Dec-17.0) TDB
Reference: JPL 42 (heliocentric ecliptic J2000)
Element | Value | Uncertainty (1-sigma) | Units |
e | .1684014783706083 | 1.2755e-08 | |
a | 2.546395246835429 | 7.5094e-09 | au |
q | 2.117578522752453 | 3.1862e-08 | au |
i | 5.851201225700842 | 4.439e-07 | deg |
node | 244.7511625975711 | 3.1948e-06 | deg |
peri | 233.8219033481224 | 7.3871e-06 | deg |
M | 240.7514490409984 | 9.4875e-06 | deg |
tp | 2459692.129301142661 (2022-Apr-22.62930114) | 4.0637e-05 | TDB |
period | 1484.181962699128 4.06 | 6.5653e-06 1.797e-08 | d yr |
n | .2425578595129302 | 1.073e-09 | deg/d |
Q | 2.975211970918405 | 8.774e-09 | au |
|
| | Orbit Determination Parameters
Additional Information
|
[ show covariance matrix ]
Physical Parameter Table
Parameter |
Symbol |
Value |
Units |
Sigma |
Reference |
Notes |
absolute magnitude |
H |
11.85 |
|
n/a |
E2021B10 |
|
diameter |
diameter |
11.633 |
km |
0.137 |
urn:nasa:pds:neowise_diameters_albedos::2.0[mainbelt] (http://adsabs.harvard.edu/abs/2014ApJ...791..121M) |
|
rotation period |
rot_per |
11.053 |
h |
n/a |
LCDB (Rev. 2020-October); Warner et al., 2009 |
Published Reference List: [Waszczak, A.; Chang, C.-K.; Ofeck, E.O.; Laher, F.; et al. (2015) Astron. J. 150, A75.] [Foylan, M.; Rowe, B.; Smith, K.S. (2018) Minor Planet Bull. 45, 132-133.] |
geometric albedo |
albedo |
0.274 |
|
0.046 |
urn:nasa:pds:neowise_diameters_albedos::2.0[mainbelt] (http://adsabs.harvard.edu/abs/2014ApJ...791..121M) |
|
SMASSII spectral type |
spec_B |
S |
|
n/a |
EAR-A-5-DDR-TAXONOMY-V4.0 |
based on a high-resolution spectrum by Xu et al. (1995) or Bus and Binzel (2002) |
|
1888 Zu Chong-Zhi (1964 VO1) Discovered 1964-Nov-09 by Purple Mountain Observatory at Nanking |
Reference: DISCOVERY.DB | Last Updated: 2003-08-29 |
|
Alternate Designations
1964 VO1 = 1931 TR = 1941 CB = 1941 DD = 1968 UU1 = 1972 TR4 = 1972 VT |
|
|